STARLINK-30530

operational
NORAD ID: 58005 Int'l Des: 2023-153 Owner: SPXS Country: US Constellation: starlink
LEOCIRCULAR

About STARLINK-30530

Description loading...

Live Position

Loading 3D Globe...

Upcoming Passes

Altitude History

Altitude vs Time

uPlot chart will show altitude changes over time

Two-Line Element Set

1 58005U 23153Q 25251.50727373 -.00000067 00000-0 10094-4 0 9993
2 58005 43.0054 338.4823 0001500 265.1033 94.9638 15.02529119107476
Epoch: Sep 8, 2025 • Age: 15 hours

Current Status

Altitude 562.9 km
Velocity 7.59 km/s
Sub-Earth Point 41.33°N, 13.43°E
Launch Date Oct 5, 2023
Age 1.9 years
Type internet

Technical Details

Classification Payload
Mass 730.00 kg
Dry Mass 700.00 kg
Total Mass 730.00 kg
Length 0.30 m
Diameter 4.10 m
Span 29.00 m
Shape Box + pan
Manufacturer SPXS
Bus Type Starlink V2M
Phase Status In Orbit
Owner/State SPXS/US

Large Constellations

Loading constellations...